www.pogodaiklimat.ru

Погода и климат >> Архив погоды >> Мадагаскар >> Тулиара


ПОГОДА в Тулиаре

  • Прогноз погоды в Тулиаре
  • Монитор погоды в Тулиаре

АРХИВ ПОГОДЫ в Тулиаре

Время (UTC), дата Ветер
(напр.,м/с)
 
Видим.   Явления Облачность Т
(С)
Тd
(С)
f
(%)
Тe
(С)
Тes
(С)
Комфортность P
(гПа)
Po
(гПа)
Тmin
(С)
Tmax
(С)
R
(мм)
R24
(мм)
S
(см)
12 11.09 З 5 40 км 1/1 600 м
[Cu Sc]
+25.3 +19.0 68 +30 +34 душно 1015.6 1014.7
15 11.09 З 2 40 км 1/1 600 м
[Cu Sc]
+23.3 +17.2 69 +29 +29 душно 1016.4 1015.5
03 12.09 В 1 35 км туман на расстоянии 1/1 600 м
[Cu med, cong]
+16.3 +16.0 98 +17 +17 1017.7 1016.8
06 12.09 штиль 0 40 км ясно +24.5 +18.6 70 +29 +41 душно 1018.8 1017.9 +16.4
09 12.09 З 4 40 км ясно +26.6 +18.8 62 +32 +43 очень
душно
1018.1 1017.2
12 12.09 ЮЗ 6 40 км 1/1 600 м
[Cu Sc]
+25.7 +18.4 64 +30 +33 душно 1016.6 1015.7
15 12.09 ЮЗ 5 40 км ясно +23.9 +19.6 77 +29 +29 душно 1016.8 1015.9
03 13.09 В 2 40 км ясно +19.0 +16.4 85 +21 +21 комфорт 1016.8 1015.9
06 13.09 В 1 40 км ясно +27.5 +16.5 51 +31 +41 душно 1017.3 1016.4 +18.9
09 13.09 З 4 40 км 1/1 600 м
[Cu med, cong]
+30.5 +17.4 45 +34 +45 очень
душно
1016.1 1015.2
12 13.09 ЮЗ 3 40 км ясно +29.1 +18.4 52 +34 +42 очень
душно
1013.9 1013.0
15 13.09 Ю 3 40 км 1/0
[]
+24.8 +21.6 82 +32 +32 очень
душно
1014.3 1013.4
03 14.09 ЮВ 2 35 км ясно +18.2 +13.1 72 +19 +19 1016.3 1015.4
06 14.09 штиль 0 40 км ясно +27.4 +15.0 47 +30 +42 жарко 1018.0 1017.1 +17.9
03 15.09 В 3 40 км ясно +16.7 +12.2 75 +16 +16 1018.6 1017.7
06 15.09 ЮЗ 3 40 км ясно +24.5 +15.2 56 +27 +34 жарко 1019.5 1018.6 +15.9
03 16.09 Ю 2 40 км ясно +19.3 +16.4 83 +22 +22 комфорт 1018.0 1017.1
06 16.09 ЮВ 6 40 км ясно +23.5 +15.8 62 +27 +30 душно 1018.6 1017.7 +19.1
09 16.09 ЮЗ 6 40 км 1/0
[]
+29.0 +16.8 48 +33 +39 очень
душно
1017.0 1016.1
12 16.09 ЮЗ 11 40 км ясно +25.5 +19.0 67 +30 +31 душно 1015.4 1014.5
15 16.09 ЮЗ 10 40 км ясно +24.0 +18.5 71 +28 +28 душно 1016.0 1015.1
03 17.09 Ю 2 40 км ясно +18.1 +15.0 82 +19 +19 1017.6 1016.7
06 17.09 ЮВ 5 40 км 1/1 600 м
[Cu Sc]
+23.2 +15.8 63 +28 +32 душно 1018.1 1017.2 +17.9
09 17.09 Ю 3 40 км 3/3 600 м
[Cu Sc]
+29.6 +16.2 44 +33 +43 душно 1016.0 1015.1
12 17.09 Ю 5 40 км ясно +31.4 +13.6 34 +33 +38 жарко 1013.8 1012.9
15 17.09 Ю 8 40 км ясно +28.5 +14.2 42 +31 +31 душно 1013.9 1013.0
03 18.09 ЮВ 6 40 км ясно +19.7 +15.0 74 +21 +21 комфорт 1015.5 1014.6
06 18.09 ЮВ 3 40 км ясно +25.6 +16.0 55 +29 +36 душно 1016.4 1015.5 +19.6
09 18.09 ЮЗ 9 40 км 1/1 600 м
[Cu Sc]
+26.5 +20.2 68 +33 +34 очень
душно
1015.6 1014.7

 

Местоположение метеостанции Тулиара (Мадагаскар): широта -23.38 долгота 43.73 высота над уровнем моря 8 м.

В архиве по умолчанию представлена погода в Тулиаре за последнюю неделю. Архивные данные за месяц целиком и за предыдущие месяцы, начиная с января 2011 года, Вы можете получить, выбрав интересующий диапазон дат из раскрывающегося списка и нажав кнопку "Ввод!".


*Определитесь, кто Вы:
робот инопланетянин человек

Внимание! Время в таблицах - всемирное. Для получения местного времени необходимо прибавить поправку, которая равна 3 ч.

Смотрите также архив погоды в соседних городах и на ближайших метеорологических станциях:

Погода в Моромбе (Мадагаскар) (185 км)
Погода в Раноайре (Мадагаскар) (295 км)
Погода в Мурундаве (Мадагаскар) (350 км)
Погода на Острове Европа (Реюньон) (372 км)
Погода в Толанаро (Мадагаскар) (375 км)
Погода в Фианаранцуа (Мадагаскар) (408 км)
Погода в Фарафангане (Мадагаскар) (424 км)
Погода в Манандзари (Мадагаскар) (516 км)
Погода в Анцирабе (Мадагаскар) (526 км)
Погода в Мэнтирано (Мадагаскар) (594 км)

Пояснения к столбцам:

Ветер - указаны скорость ветра в м/с - средняя за 10 мин, порывы в срок и между сроками (в фигурных скобках) и направление, откуда дует ветер: С - северный, СВ - северо-восточный, В - восточный, ЮВ - юго-восточный, Ю - южный, ЮЗ - юго-западный, З - западный, СЗ - северо-западный.
Видимость - горизонтальная дальность видимости в метрах или километрах. При видимости от 1 до 10 км при отсутствии осадков обычно наблюдается дымка, при ухудшении видимости до 1 км и менее - туман. В сухую погоду видимость может ухудшаться дымом, пылью или мглою.
Явления - указаны атмосферные явления, наблюдавшиеся в срок или в последний час перед сроком; фигурными скобками обозначены явления, наблюдавшиеся между сроками (за 1-3 часа до срока); квадратными скобками обозначены град или гололедные отложения с указанием их диаметра в мм.
Облачность - указаны через наклонную черту общая и нижняя облачность в баллах и высота нижней границы облаков в метрах; квадратными скобками обозначены формы облаков: Ci - перистые, Cs - перисто-слоистые, Cc - перисто-кучевые, Ac - высококучевые, As - высокослоистые, Sc - слоисто-кучевые, Ns - слоисто-дождевые, Cu - кучевые, Cb - кучево-дождевые. Подробнее классификацию облаков см. в Атласе облаков (PDF).
T - Температура воздуха - температура, измеренная на высоте 2 м над землей.
Td - Температура точки росы - температура, при понижении до которой содержащийся в воздухе водяной пар достигнет насыщения.
f - Относительная влажность воздуха - влажноcть воздуха, измеренная на высоте 2 м над землей.
Te - Эффективная температура - температура, которую ощущает одетый по сезону человек в тени. Характеристика душности погоды. При расчете учитывается влияние влажности воздуха и скорости ветра на теплоощущения человека.
Tes - Эффективная температура на солнце - температура, которую ощущает человек, с поправкой на солнечный нагрев. Характеристика знойности погоды. Зависит от высоты солнца над горизонтом, облачности и скорости ветра. Ночью, в пасмурную погоду, а также при ветре 12 м/с и более поправка равна нулю.
P - Атмосферное давление - приведенное к уровню моря атмосферное давление.
Po - Атмосферное давление - измеренное на уровне метеостанции атмосферное давление.
Tmin - Минимальная температура - минимум температуры воздуха на высоте 2 м над землей.
Tmax - Максимальная температура - максимум температуры воздуха на высоте 2 м над землей.
R - Количество осадков - Количество выпавших осадков за период времени, мм. При наведении курсора мыши на число - период времени, за который выпало указанное количество осадков.
R24 - Количество осадков - Количество выпавших осадков за 24 часа, мм.
S - Снежный покров - Высота снежного покрова, см. При наведении курсора мыши на число - состояние снежного покрова и степень покрытия местности в баллах.